Location: Henham
(51.9333°N, 0.2500°E)
Time: 21:00:58
(UTC+00:00)

YAOGAN 1 - Pass Details

Date: 23 October 2019
Orbit: 619 x 621 km, 98.0° (Epoch: 18 November)

Event Time Altitude Azimuth Distance (km) Brightness Sun altitude
Rises 18:14:44 0° 164° (SSE) 2,888 5.8 -13.8°
Reaches altitude 10° 18:16:55 10° 165° (SSE) 1,986 5.0 -14.2°
Maximum altitude 18:21:14 88° 254° (WSW) 629 2.6 -14.9°
Drops below altitude 10° 18:25:36 10° 345° (NNW) 2,001 5.4 -15.5°
Sets 18:27:48 0° 346° (NNW) 2,912 6.2 -15.9°
